TimeEST,TemperatureF,Dew PointF,Humidity,Sea Level PressureIn,VisibilityMPH,Wind Direction,Wind SpeedMPH,Gust SpeedMPH,PrecipitationIn,Events,Conditions,WindDirDegrees,DateUTC
12:51 AM,42.1,28.0,58,30.11,10.0,Calm,Calm,-,N/A,,Mostly Cloudy,0,2013-12-20 05:51:00
1:51 AM,41.0,28.9,62,30.10,10.0,Calm,Calm,-,N/A,,Overcast,0,2013-12-20 06:51:00
2:51 AM,42.1,28.0,58,30.10,10.0,South,4.6,-,N/A,,Overcast,190,2013-12-20 07:51:00
3:51 AM,39.0,27.0,62,30.09,10.0,South,3.5,-,N/A,,Mostly Cloudy,190,2013-12-20 08:51:00
4:51 AM,41.0,28.9,62,30.09,10.0,South,4.6,-,N/A,,Mostly Cloudy,170,2013-12-20 09:51:00
5:51 AM,42.1,30.0,62,30.08,10.0,South,5.8,-,N/A,,Overcast,170,2013-12-20 10:51:00
6:51 AM,42.1,30.0,62,30.09,10.0,South,4.6,-,N/A,,Mostly Cloudy,190,2013-12-20 11:51:00
7:51 AM,43.0,30.0,60,30.10,10.0,South,8.1,-,N/A,,Overcast,180,2013-12-20 12:51:00
8:51 AM,44.1,30.0,58,30.07,10.0,South,4.6,-,N/A,,Overcast,190,2013-12-20 13:51:00
9:51 AM,46.0,28.9,51,30.06,10.0,SSW,6.9,-,N/A,,Mostly Cloudy,200,2013-12-20 14:51:00
10:51 AM,48.0,28.9,48,30.05,10.0,SW,11.5,-,N/A,,Mostly Cloudy,220,2013-12-20 15:51:00
11:51 AM,48.0,28.9,48,30.03,10.0,SW,9.2,-,N/A,,Mostly Cloudy,220,2013-12-20 16:51:00
12:51 PM,48.9,28.9,46,30.00,10.0,SW,10.4,-,N/A,,Overcast,220,2013-12-20 17:51:00
1:51 PM,50.0,28.9,44,29.99,10.0,SW,9.2,-,N/A,,Overcast,220,2013-12-20 18:51:00
2:51 PM,51.1,28.9,43,29.98,10.0,SW,12.7,18.4,N/A,,Overcast,220,2013-12-20 19:51:00
3:51 PM,51.1,30.0,44,29.98,10.0,WSW,6.9,-,N/A,,Overcast,240,2013-12-20 20:51:00
4:51 PM,51.1,30.0,44,30.00,10.0,SW,5.8,-,N/A,,Scattered Clouds,220,2013-12-20 21:51:00
5:51 PM,51.1,30.0,44,30.00,10.0,SW,8.1,-,N/A,,Scattered Clouds,230,2013-12-20 22:51:00
6:51 PM,52.0,30.9,45,29.98,10.0,SSW,12.7,-,N/A,,Mostly Cloudy,210,2013-12-20 23:51:00
7:51 PM,52.0,32.0,47,30.00,10.0,SW,8.1,-,N/A,,Mostly Cloudy,230,2013-12-21 00:51:00
8:51 PM,52.0,35.1,53,30.01,10.0,SW,9.2,-,N/A,,Overcast,220,2013-12-21 01:51:00
9:51 PM,51.1,39.0,63,29.99,10.0,SW,8.1,-,N/A,,Clear,220,2013-12-21 02:51:00
10:51 PM,52.0,41.0,66,29.99,10.0,SW,9.2,16.1,N/A,,Mostly Cloudy,220,2013-12-21 03:51:00
11:51 PM,51.1,44.1,77,29.98,10.0,SW,6.9,-,N/A,,Overcast,230,2013-12-21 04:51:00